This demonstration page uses our WeatherBlox Daily Observations layout. Learn more.

Left ArrowRight Arrow

Hourly Observations for November 9, 2016

Temp ( °F °C ) Dew Point ( °F °C ) Humidity (%) Winds ( mph kmh ) Pressure ( in mb ) Visibility ( mi km ) Precip ( " mm )
12:15 am 00:15 Clear 36 2.4 35 1.6 95 95 N N/A 30.53 1034 10 16 N/A
12:35 am 00:35 Clear 38 3.2 37 2.5 95 95 SSW 3 6 30.53 1034 10 16 N/A
12:55 am 00:55 Clear 37 2.6 35 1.7 94 94 SW 3 6 30.53 1034 10 16 N/A
1:15 am 01:15 Clear 38 3.5 37 2.7 95 95 SW 3 6 30.53 1034 10 16 N/A
1:35 am 01:35 Clear with Mist and Fog 35 1.7 33 0.5 92 92 N N/A 30.56 1035 5 8 N/A
1:55 am 01:55 Clear with Mist and Fog 33 0.8 32 undefined 94 94 N N/A 30.53 1034 2 3 N/A
2:15 am 02:15 Clear 34 1.3 33 0.6 95 95 SW 5 7 30.53 1034 7 11 N/A
2:35 am 02:35 Clear 38 3.2 37 2.5 95 95 SW 5 7 30.53 1034 10 16 N/A
2:55 am 02:55 Clear 34 1.2 32 0.2 93 93 N N/A 30.53 1034 10 16 N/A
3:15 am 03:15 Clear 38 3.5 37 2.7 95 95 SW 6 9 30.53 1034 10 16 N/A
3:35 am 03:35 Clear 37 2.7 36 2.1 96 96 SSW 6 9 30.53 1034 7 11 N/A
3:55 am 03:55 Clear 37 2.6 35 1.9 95 95 SSW 5 7 30.53 1034 10 16 N/A
4:15 am 04:15 Clear 37 2.5 35 1.7 95 95 SW 5 7 30.50 1033 10 16 N/A
4:35 am 04:35 Clear 36 2.3 35 1.5 95 95 SW 3 6 30.50 1033 10 16 N/A
4:55 am 04:55 Clear 36 2.3 35 1.5 95 95 W 5 7 30.50 1033 10 16 N/A
5:15 am 05:15 Clear with Mist and Fog 35 1.6 34 1 96 96 W 6 9 30.50 1033 5 8 N/A
5:35 am 05:35 Clear 35 1.5 33 0.8 95 95 W 3 6 30.50 1033 7 11 N/A
5:55 am 05:55 Clear 34 1 33 0.4 96 96 W 3 6 30.50 1033 10 16 N/A
6:15 am 06:15 Clear 35 1.5 34 1 97 97 W 3 6 30.50 1033 10 16 N/A
6:35 am 06:35 Clear 35 1.6 34 1 96 96 W 3 6 30.50 1033 10 16 N/A
6:55 am 06:55 Clear 35 1.5 33 0.8 95 95 WSW 3 6 30.50 1033 10 16 N/A
7:15 am 07:15 Clear 35 1.7 34 1 95 95 WSW 3 6 30.50 1033 10 16 N/A
7:35 am 07:35 Sunny 35 1.8 34 1 95 95 SW 5 7 30.50 1033 10 16 N/A
7:55 am 07:55 Sunny 35 1.7 34 0.9 94 94 SW 7 11 30.50 1033 10 16 N/A
8:15 am 08:15 Sunny 36 2.3 35 1.5 95 95 SW 7 11 30.50 1033 10 16 N/A
8:35 am 08:35 Sunny 38 3.2 36 2.2 93 93 SW 7 11 30.45 1031 10 16 N/A
8:55 am 08:55 Sunny 39 3.9 37 2.7 92 92 SW 9 15 30.45 1031 10 16 N/A
9:15 am 09:15 Sunny 41 4.8 38 3.5 91 91 SW 9 15 30.45 1031 10 16 N/A
9:35 am 09:35 Sunny 42 5.7 39 4.1 90 90 SW 8 13 30.45 1031 10 16 N/A
9:55 am 09:55 Sunny 43 6.2 39 4 86 86 SW 10 17 30.42 1030 10 16 N/A
10:15 am 10:15 Sunny 45 7.2 40 4.6 84 84 SW 7 11 30.42 1030 10 16 N/A
10:35 am 10:35 Sunny 48 8.8 41 5.2 78 78 SW 12 19 30.42 1030 10 16 N/A
10:55 am 10:55 Sunny 49 9.4 42 5.4 76 76 SW 12 19 30.39 1029 10 16 N/A
11:15 am 11:15 Sunny 50 10.2 42 5.3 72 72 SW 12 19 30.39 1029 10 16 N/A
11:35 am 11:35 Sunny 52 10.9 41 4.8 66 66 SW 12 19 30.36 1028 10 16 N/A
11:55 am 11:55 Sunny 53 11.5 40 4.5 62 62 SW 14 22 30.36 1028 10 16 N/A
12:15 pm 12:15 Sunny 54 12 39 4.1 59 59 SSW 15 24 30.36 1028 10 16 N/A
12:35 pm 12:35 Sunny 55 12.9 39 3.8 54 54 SW 14 22 30.33 1027 10 16 N/A
12:55 pm 12:55 Sunny 56 13.6 39 3.9 52 52 SSW 14 22 30.30 1026 10 16 N/A
1:15 pm 13:15 Sunny 57 14.1 37 2.5 46 46 SSW 14 22 30.30 1026 10 16 N/A
1:35 pm 13:35 Sunny 58 14.6 35 1.6 42 42 SSW 16 26 30.30 1026 10 16 N/A
1:55 pm 13:55 Sunny 59 15.1 34 1.1 39 39 SSW 13 20 30.27 1025 10 16 N/A
2:15 pm 14:15 Sunny 60 15.4 34 1 38 38 S 14 22 30.24 1024 10 16 N/A
2:35 pm 14:35 Sunny 60 15.5 34 1.1 38 38 SSW 15 24 30.24 1024 10 16 N/A
2:55 pm 14:55 Sunny 60 15.5 34 1.2 38 38 SSW 15 24 30.24 1024 10 16 N/A
3:15 pm 15:15 Sunny 60 15.8 33 0.6 36 36 S 13 20 30.24 1024 10 16 N/A
3:35 pm 15:35 Sunny 60 15.5 32 undefined 35 35 SSW 14 22 30.21 1023 10 16 N/A
3:55 pm 15:55 Sunny 59 15.2 33 0.5 37 37 S 13 20 30.21 1023 10 16 N/A
4:15 pm 16:15 Sunny 59 15 35 1.6 41 41 S 15 24 30.21 1023 10 16 N/A
4:35 pm 16:35 Sunny 58 14.6 35 1.8 42 42 S 9 15 30.24 1024 10 16 N/A
4:55 pm 16:55 Sunny 57 13.8 36 2 45 45 S 9 15 30.24 1024 10 16 N/A
5:15 pm 17:15 Sunny 55 13 36 2.1 48 48 S 9 15 30.24 1024 10 16 N/A
5:35 pm 17:35 Clear 53 11.4 37 2.5 55 55 S 8 13 30.27 1025 10 16 N/A
5:55 pm 17:55 Clear 49 9.3 37 2.5 63 63 S 8 13 30.27 1025 10 16 N/A
6:15 pm 18:15 Clear 46 8 36 2.2 67 67 S 7 11 30.30 1026 10 16 N/A
6:35 pm 18:35 Clear 45 7.3 36 2 69 69 S 7 11 30.30 1026 10 16 N/A
6:55 pm 18:55 Clear 45 7.2 35 1.8 69 69 S 6 9 30.30 1026 10 16 N/A
7:15 pm 19:15 Clear 47 8.3 36 2 65 65 S 10 17 30.27 1025 10 16 N/A
7:35 pm 19:35 Clear 47 8.3 36 2 65 65 S 13 20 30.27 1025 10 16 N/A
7:55 pm 19:55 Clear 47 8.2 36 2.1 66 66 S 13 20 30.30 1026 10 16 N/A
8:15 pm 20:15 Clear 47 8.5 36 2.1 64 64 S 14 22 30.24 1024 10 16 N/A
8:35 pm 20:35 Clear 45 7.2 35 1.7 68 68 S 10 17 30.27 1025 10 16 N/A
8:55 pm 20:55 Clear 43 6.1 35 1.5 73 73 S 10 17 30.27 1025 10 16 N/A
9:15 pm 21:15 Clear 45 7.3 35 1.5 67 67 S 10 17 30.27 1025 10 16 N/A
9:35 pm 21:35 Clear 44 6.9 34 1.3 68 68 SSW 12 19 30.27 1025 10 16 N/A
9:55 pm 21:55 Clear 44 6.5 34 1.2 69 69 SSW 8 13 30.27 1025 10 16 N/A
10:15 pm 22:15 Clear 43 6.1 34 1.1 71 71 SSW 12 19 30.27 1025 10 16 N/A
10:35 pm 22:35 Clear 42 5.3 34 0.9 74 74 SSW 7 11 30.27 1025 10 16 N/A
10:55 pm 22:55 Clear 40 4.7 33 0.7 76 76 SSW 6 9 30.30 1026 10 16 N/A
11:15 pm 23:15 Clear 40 4.5 33 0.8 77 77 SW 12 19 30.30 1026 10 16 N/A
11:35 pm 23:35 Clear 40 4.5 33 0.6 76 76 SSW 10 17 30.30 1026 10 16 N/A
11:55 pm 23:55 Clear 40 4.3 33 0.4 76 76 SSW 10 17 30.30 1026 10 16 N/A

Powered by AerisWeather